STARLINK-33814, 63582

Orbit data source: Space-Track

STARLINK-33814, 63582 is a payload satellite owned by SpaceX/Seattle (US) in LEO that was launched on Mon, 14 Apr 2025 UTC via an FALCON 9 launch vehicle from the Air Force Eastern Test Range (AFETR). Payload-class satellites include a variety of spacecraft equipped with specific instruments for various scientific and technological missions. These include communications satellites like Starlink; space stations such as the ISS; scientific satellites like the Hubble; Earth observation satellites from companies like Planet Labs, Umbra, and HawkEye 360; GPS; miniature CubeSats for education and research; and military/defense satellites.

Loading next visibility...
Identifier
63582, 2025-076P
Orbit
LEO
Country
Flag of USUS
Related business
Manufacturer
SpaceX/Seattle
Mission
Operational Commercial Communications
Bus & Motor
STARLINK V2MO, Unknown motor
Mass
575 kg wet, ~530 kg dry
Launch date (UTC)
2025-04-14 (1 year ago)
Launch vehicle
FALCON 9
Launch site
Air Force Eastern Test Range (AFETR)
Object type
Payload
Rocket body
Debris
Shape & HBR
Box + 2 Pan, 17.7 m
Radar Cross Section
36.964 m², Large (>1 m²)

Expand to show TLE details & history
Last TLE update: 9 hours ago

TLE from 9 hours ago
0 STARLINK-33814
1 63582U 25076P   26144.99724388  .00022519  00000-0  82515-3 0  9994
2 63582  42.9987 250.4891 0001253 281.1878  78.8832 15.27587208 63505
Epoch: 2026-05-24T23:56Z
TLE epoch observation values (Epoch: 2026-05-24T23:56:01.871Z)
Latitude
-0.00006°
Longitude
8.88988°
Altitude
482.637 km
Speed
7.626 km/s
True Right ascension
16h 41m 57s
True Declination
0° 00' 00"
Sunlit
Object was in full shadow at epoch
Visualization orbit readout
Latitude
Unknown
Longitude
Unknown
Altitude
Unknown
Speed
Unknown
Apparent Right ascension
Unknown
Apparent Declination
Unknown
Sunlit
N/A
Visualization observer readout
Local Sidereal Time
18:26:55
Azimuth
Unknown
Elevation
Unknown
Doppler factor
Unknown
Orbital elements
Apogee altitude
485.833 km
Perigee altitude
484.113 km
Semi-major axis
6,863.11 km
Eccentricity
0.00013
Inclination
42.9987°
RAAN
250.4891°
Arg. of periapsis
281.1878°
True anomaly
78.89729°
Mean anomaly
78.8832°
Eccentric anomaly
78.89024°
Mean motion
3.81735 °/min
Orbital period
94.31 mins
BSTAR
0.00082515
Loading maneuver chart data...
Computing Atmospheric mass density...
Loading historical data...
Loading historical data...
Loading historical data...
Loading historical data...
Loading historical data...
Loading historical data...
Loading historical data...

Documentation

Showing up to 5 results
|